User: anonymous   Login
Location: Gull Harbor
(47.1000°N, 122.9000°W)
Time: 06:33:22
(UTC-07:00)
Language:

Envisat - Orbit

View from above orbital plane
View from above orbital plane
View from above satellite
View from above satellite

Ground track
Ground track

The orbit data is extracted from the following two-line orbital elements,

1 27386U 02009A   21263.20529144  .00000029  00000-0  22961-4 0  9993
2 27386  98.1566 252.4549 0001241  85.3930 285.7310 14.38042480 24691
Epoch (UTC): 20 September 2021 04:55:37
Eccentricity: 0.0001241
inclination: 98.1566°
perigee height: 764 km
apogee height: 766 km
right ascension of ascending node: 252.4549°
argument of perigee: 85.3930°
revolutions per day: 14.38042480
mean anomaly at epoch: 285.7310°
orbit number at epoch: 2469

The dashed part of the orbit path shows where the satellite is in the earth's shadow,  

DLR